Temp
-4 -4 -4 -4 -4 -4 -4 -4 -3 -4 -4 -3 -3 -4 -3 -2 -2 -2 -1 -0 -0 0 1 2 2 2 2 2 2 2 3 3 4 3 4 3 3 3 3 4 4 3 3
-6 -6 -5 -5 -5 -5 -4 -4 -4 -5 -5 -4 -4 -4 -4 -4 -3 -2 -2 -0 -1 -1 0 1 2 1 2 1 1 2 2 2 3 3 3 3 3 3 3 3 3 3 3
-6 -6 -6 -6 -6 -6 -5 -5 -5 -5 -5 -5 -5 -5 -4 -4 -3 -3 -2 -1 -1 -1 -1 0 1 1 1 1 1 1 1 2 3 3 3 3 3 2 3 3 3 3 3
-7 -6 -6 -6 -6 -6 -6 -6 -6 -6 -5 -5 -6 -5 -5 -4 -4 -3 -2 -2 -2 -2 -1 -0 1 1 1 1 1 1 1 2 2 2 3 3 3 2 3 3 3 2 2
-7 -7 -7 -6 -6 -6 -6 -6 -6 -6 -6 -6 -6 -5 -5 -6 -5 -4 -3 -3 -3 -3 -2 -0 1 0 0 0 1 1 1 1 2 2 2 2 2 2 2 2 3 1 -0
-8 -7 -7 -7 -6 -6 -6 -6 -6 -6 -6 -6 -6 -5 -5 -6 -5 -3 -4 -3 -2 -2 -2 -1 0 0 -0 0 0 1 1 1 1 2 2 2 2 1 2 2 1 0 0
-8 -7 -7 -7 -7 -7 -7 -7 -6 -6 -6 -6 -6 -6 -6 -6 -5 -4 -3 -3 -2 -3 -2 -1 -0 -0 -0 -0 0 1 1 1 1 1 1 1 2 2 2 1 -0 -0 -1
-8 -8 -8 -8 -7 -7 -7 -7 -6 -7 -7 -6 -6 -6 -6 -6 -5 -4 -3 -3 -3 -3 -3 -1 -0 -0 -1 -0 0 0 0 1 1 1 2 2 2 1 0 -1 -0 -1 -0
-9 -8 -8 -8 -7 -7 -6 -6 -7 -6 -7 -6 -6 -6 -6 -6 -5 -4 -3 -3 -4 -3 -3 -1 -1 -1 -1 -0 -0 0 0 0 1 1 1 1 1 -0 -1 -1 -1 -1 -2
-10 -9 -9 -8 -8 -7 -6 -6 -6 -6 -6 -6 -6 -6 -6 -6 -5 -4 -4 -4 -4 -4 -2 -2 -1 -1 -1 -0 -0 -0 -0 0 1 1 1 1 -1 -1 -2 -2 -3 -2 -2
-11 -11 -10 -9 -8 -7 -6 -6 -6 -6 -6 -6 -6 -6 -6 -6 -5 -4 -4 -4 -5 -4 -2 -2 -1 -1 -0 -0 -1 -0 0 0 1 1 1 -0 -1 -1 -2 -2 -2 -2 -2
-12 -11 -11 -10 -8 -6 -6 -6 -6 -6 -6 -6 -6 -6 -6 -6 -5 -4 -4 -5 -4 -4 -2 -1 -1 -1 -1 -1 -0 -0 0 0 0 0 -0 -1 -1 -1 -1 -1 -2 -2 -2
-12 -11 -11 -10 -8 -7 -6 -6 -6 -6 -7 -6 -6 -6 -6 -6 -5 -5 -5 -5 -5 -5 -3 -2 -2 -2 -2 -1 -1 -1 -0 0 -0 -0 -0 -1 -1 -1 -2 -2 -2 -2 -2
-12 -11 -10 -10 -8 -7 -6 -6 -6 -7 -6 -6 -7 -6 -6 -5 -5 -5 -5 -6 -6 -4 -3 -2 -2 -2 -2 -1 -1 -1 -1 -1 -1 -0 -1 -1 -1 -1 -1 -1 -2 -2 -2
-12 -11 -10 -9 -8 -7 -6 -6 -7 -7 -7 -6 -7 -6 -5 -5 -5 -6 -6 -6 -5 -3 -2 -3 -2 -2 -2 -1 -1 -1 -1 -1 -1 -1 -1 -0 -1 -0 -1 -1 -2 -2 -2
-11 -10 -9 -9 -8 -7 -6 -6 -7 -7 -6 -7 -7 -6 -5 -5 -5 -6 -6 -6 -4 -3 -3 -3 -3 -2 -2 -2 -2 -2 -1 -1 -1 -1 -1 -1 -1 -1 -1 -1 -1 -1 -2
-9 -9 -8 -8 -7 -7 -7 -7 -6 -6 -6 -7 -7 -6 -5 -5 -6 -6 -6 -5 -4 -3 -4 -3 -2 -2 -2 -2 -2 -2 -2 -2 -1 -1 -0 -1 -1 -1 -1 -1 -1 -1 -1
-9 -9 -8 -8 -8 -8 -7 -7 -7 -7 -7 -7 -7 -6 -6 -6 -6 -6 -6 -5 -3 -4 -4 -3 -3 -3 -3 -3 -3 -2 -2 -2 -1 -1 -0 -1 -1 -2 -1 -1 -1 -1 -1
-9 -9 -9 -9 -9 -8 -7 -7 -7 -8 -8 -7 -7 -6 -6 -7 -6 -6 -5 -4 -4 -4 -4 -3 -3 -3 -4 -3 -3 -3 -3 -2 -1 -1 -1 -1 -2 -2 -1 -1 -1 -1 -0
-10 -10 -10 -10 -9 -8 -8 -8 -8 -8 -8 -7 -7 -6 -7 -7 -6 -6 -5 -5 -5 -5 -4 -4 -4 -4 -4 -3 -3 -3 -3 -2 -2 -1 -1 -2 -2 -2 -1 -1 -1 -0 1
-10 -9 -9 -9 -9 -8 -8 -8 -7 -7 -7 -7 -6 -6 -7 -6 -6 -6 -5 -5 -6 -5 -5 -4 -4 -4 -4 -3 -3 -3 -3 -3 -2 -1 -1 -2 -2 -2 -1 -1 -1 -1 0
-10 -9 -9 -9 -8 -8 -8 -8 -7 -7 -7 -7 -6 -6 -7 -7 -7 -7 -6 -6 -6 -5 -5 -4 -4 -4 -4 -3 -3 -3 -3 -3 -2 -2 -1 -2 -1 -1 -2 -1 -1 -2 -1
-10 -10 -9 -9 -9 -9 -8 -8 -8 -7 -7 -7 -7 -7 -7 -8 -8 -8 -7 -5 -5 -5 -5 -5 -4 -4 -3 -4 -4 -4 -3 -3 -3 -2 -1 -1 -1 -1 -2 -1 -0 -1 -2
-10 -10 -10 -10 -10 -9 -9 -8 -8 -8 -8 -7 -7 -7 -8 -8 -8 -7 -6 -5 -5 -5 -5 -5 -4 -4 -4 -4 -4 -4 -3 -3 -3 -2 -1 -1 -1 -1 -1 -2 -1 -1 -1
-10 -10 -10 -10 -9 -9 -9 -9 -9 -8 -8 -7 -7 -7 -8 -8 -7 -6 -6 -6 -5 -5 -5 -4 -4 -4 -4 -4 -4 -4 -3 -3 -3 -2 -2 -1 -1 -1 -1 -1 -2 -1 -1
-11 -10 -10 -10 -9 -9 -9 -9 -9 -8 -8 -8 -7 -7 -7 -7 -7 -6 -6 -6 -6 -5 -4 -5 -4 -4 -4 -4 -4 -4 -3 -3 -3 -2 -2 -2 -1 -1 -1 -1 -1 -1 -2
Height
3040 3037 3034 3031 3028 3024 3020 3017 3012 3007 3008 3005 3001 2999 3000 3003 3006 3012 3019 3024 3028 3033 3036 3043 3048 3052 3055 3058 3059 3060 3062 3064 3065 3067 3067 3065 3064 3061 3059 3056 3054 3052 3049
3030 3026 3023 3019 3015 3012 3009 3004 3000 2997 2995 2993 2990 2988 2988 2990 2995 2997 3004 3010 3015 3019 3025 3031 3037 3041 3045 3048 3050 3051 3053 3055 3056 3059 3058 3056 3054 3051 3048 3046 3044 3040 3036
3020 3015 3011 3008 3004 3000 2996 2992 2988 2985 2983 2981 2979 2977 2975 2977 2981 2985 2990 2995 3001 3007 3013 3018 3027 3030 3036 3039 3041 3042 3044 3045 3047 3048 3048 3047 3045 3042 3038 3035 3032 3029 3023
3009 3004 3000 2997 2992 2987 2983 2980 2977 2974 2972 2969 2967 2965 2963 2965 2967 2969 2975 2979 2986 2995 3001 3007 3015 3020 3026 3030 3031 3034 3036 3037 3038 3037 3037 3037 3035 3032 3028 3024 3020 3016 3012
2997 2994 2989 2985 2981 2976 2972 2969 2966 2963 2960 2956 2954 2953 2951 2950 2951 2957 2961 2967 2971 2983 2990 2996 3004 3010 3016 3020 3022 3026 3028 3029 3029 3028 3027 3026 3024 3020 3015 3011 3005 3003 3002
2985 2981 2978 2974 2969 2965 2961 2957 2954 2951 2947 2945 2942 2940 2937 2934 2935 2940 2947 2955 2963 2970 2979 2986 2995 3001 3006 3010 3014 3018 3020 3021 3021 3019 3019 3016 3013 3009 3004 2999 2996 2991 2988
2971 2969 2965 2962 2957 2953 2951 2946 2942 2939 2936 2932 2929 2925 2922 2919 2918 2924 2930 2941 2948 2958 2968 2977 2986 2992 2998 3003 3007 3010 3012 3013 3013 3012 3010 3008 3003 2999 2995 2990 2986 2979 2974
2956 2954 2953 2949 2945 2942 2939 2935 2931 2928 2924 2921 2915 2913 2909 2904 2905 2910 2918 2926 2936 2947 2958 2969 2978 2985 2991 2995 2999 3002 3004 3005 3005 3003 3000 2998 2993 2990 2984 2978 2974 2967 2962
2940 2939 2938 2936 2933 2930 2928 2924 2921 2916 2912 2908 2903 2902 2898 2892 2895 2899 2909 2917 2927 2937 2950 2962 2970 2978 2984 2988 2993 2995 2997 2998 2997 2996 2992 2989 2986 2981 2974 2966 2962 2953 2946
2924 2921 2921 2921 2918 2917 2916 2913 2910 2905 2900 2896 2891 2889 2888 2883 2888 2896 2903 2912 2920 2929 2943 2955 2965 2972 2977 2982 2986 2988 2990 2991 2990 2987 2985 2982 2977 2973 2967 2960 2952 2945 2938
2908 2906 2906 2905 2904 2904 2903 2902 2898 2894 2890 2885 2881 2879 2875 2876 2882 2890 2899 2907 2914 2924 2939 2950 2960 2966 2972 2976 2979 2982 2984 2984 2983 2981 2980 2976 2972 2967 2963 2957 2950 2938 2930
2894 2892 2890 2890 2890 2891 2889 2891 2887 2883 2880 2876 2873 2869 2867 2871 2878 2885 2896 2902 2909 2923 2938 2949 2956 2961 2967 2970 2973 2975 2977 2978 2978 2976 2973 2971 2967 2963 2959 2953 2944 2934 2923
2879 2877 2877 2876 2877 2878 2878 2879 2876 2873 2871 2868 2864 2862 2861 2867 2875 2884 2893 2898 2905 2922 2937 2945 2951 2957 2961 2964 2967 2970 2972 2973 2973 2970 2968 2966 2961 2958 2953 2948 2939 2928 2916
2865 2864 2864 2864 2864 2866 2868 2868 2866 2864 2862 2860 2858 2858 2860 2866 2874 2883 2888 2895 2909 2923 2932 2939 2947 2953 2956 2960 2964 2967 2968 2968 2967 2966 2965 2962 2958 2955 2951 2945 2936 2924 2914
2854 2853 2853 2852 2853 2856 2858 2858 2857 2857 2855 2854 2855 2855 2859 2866 2874 2882 2888 2895 2910 2922 2931 2938 2944 2949 2953 2957 2961 2964 2963 2963 2963 2962 2961 2958 2956 2954 2951 2945 2937 2928 2919
2845 2845 2844 2844 2846 2847 2849 2850 2851 2849 2850 2849 2850 2852 2859 2867 2875 2882 2890 2903 2914 2924 2931 2937 2942 2946 2950 2954 2958 2958 2959 2959 2959 2958 2958 2957 2955 2955 2953 2948 2941 2934 2928
2839 2839 2839 2839 2839 2840 2841 2842 2844 2845 2845 2846 2846 2850 2860 2868 2877 2882 2892 2906 2916 2924 2930 2935 2939 2944 2948 2951 2953 2954 2956 2957 2955 2956 2956 2955 2955 2957 2956 2951 2947 2942 2938
2837 2835 2834 2835 2835 2834 2834 2836 2837 2839 2842 2844 2846 2854 2863 2870 2877 2884 2894 2907 2916 2922 2928 2933 2938 2941 2944 2947 2950 2952 2953 2954 2954 2954 2953 2954 2955 2958 2958 2955 2953 2950 2948
2836 2834 2833 2831 2829 2828 2828 2831 2832 2836 2840 2843 2849 2858 2865 2872 2880 2888 2898 2911 2919 2924 2928 2933 2936 2938 2942 2945 2948 2950 2951 2953 2953 2952 2951 2953 2956 2960 2961 2960 2958 2957 2958
2835 2831 2829 2825 2823 2822 2824 2828 2832 2836 2840 2847 2854 2861 2866 2873 2880 2888 2901 2911 2918 2923 2927 2931 2934 2936 2940 2944 2946 2948 2951 2953 2952 2952 2951 2954 2956 2961 2962 2964 2964 2962 2965
2836 2833 2830 2828 2828 2828 2830 2831 2835 2839 2846 2853 2859 2866 2873 2881 2887 2895 2905 2913 2918 2921 2926 2930 2933 2935 2938 2942 2945 2948 2950 2952 2952 2953 2952 2954 2957 2961 2964 2966 2967 2968 2969
2843 2838 2835 2836 2836 2835 2835 2838 2843 2847 2852 2858 2864 2870 2877 2884 2890 2899 2907 2913 2917 2921 2925 2929 2932 2934 2937 2940 2945 2948 2950 2951 2953 2954 2954 2955 2959 2961 2964 2968 2970 2971 2973
2850 2847 2844 2842 2842 2843 2845 2848 2852 2856 2860 2864 2870 2875 2880 2888 2894 2901 2908 2913 2917 2920 2924 2928 2931 2933 2936 2940 2944 2947 2949 2950 2952 2954 2955 2956 2959 2961 2965 2968 2972 2975 2977
2856 2854 2852 2851 2850 2852 2854 2856 2859 2863 2866 2870 2875 2880 2885 2891 2896 2904 2909 2914 2918 2921 2924 2928 2931 2934 2936 2939 2943 2946 2948 2950 2952 2953 2954 2956 2958 2962 2963 2967 2972 2974 2978
2866 2864 2861 2860 2859 2860 2861 2864 2867 2870 2873 2878 2883 2886 2888 2894 2899 2905 2909 2914 2918 2921 2923 2927 2932 2934 2936 2939 2942 2945 2947 2950 2951 2952 2953 2954 2956 2959 2963 2965 2969 2973 2977
2868 2867 2867 2867 2867 2868 2870 2872 2874 2876 2880 2884 2888 2892 2896 2899 2902 2905 2909 2914 2917 2919 2923 2926 2930 2935 2938 2939 2941 2944 2947 2948 2950 2951 2951 2952 2953 2954 2957 2962 2966 2970 2975
Wind_Speed
42 37 38 38 34 35 38 41 45 43 38 41 42 40 45 50 47 46 46 41 43 44 45 46 40 35 34 32 32 32 32 32 32 31 31 32 33 35 36 37 38 40 41
43 45 40 39 38 35 36 40 40 43 38 39 41 39 38 46 42 41 40 39 41 44 43 47 42 36 35 32 32 31 32 33 33 30 30 33 35 36 37 38 38 40 42
45 44 42 38 36 34 36 40 42 41 39 37 38 37 37 43 44 43 42 41 43 43 43 45 42 37 34 32 31 31 31 32 32 32 32 33 34 35 37 39 39 40 42
41 41 41 38 38 35 36 40 40 39 39 38 41 41 39 47 56 42 46 37 45 44 43 43 44 38 33 31 31 31 30 31 32 33 33 34 35 34 37 38 39 41 43
40 38 35 36 37 37 37 38 40 39 36 35 39 41 40 38 50 54 44 40 40 39 43 43 44 37 32 31 32 29 29 30 31 33 34 35 34 34 36 38 42 42 33
42 40 38 35 37 39 39 39 40 40 40 40 41 40 44 39 43 64 47 48 37 37 42 43 43 37 33 31 29 29 28 28 30 34 33 33 33 33 37 39 40 35 33
44 44 44 41 39 38 38 37 40 38 38 40 40 41 37 40 36 51 46 46 39 34 40 43 41 35 31 28 27 26 25 27 30 31 31 31 33 34 37 38 32 35 38
47 45 44 42 42 39 38 37 37 37 38 40 41 38 38 40 36 37 45 40 33 29 37 42 39 32 28 26 25 24 24 26 28 29 30 30 32 33 36 34 34 36 29
55 49 44 42 45 41 38 37 36 37 37 39 40 36 36 37 31 32 38 35 30 29 38 42 37 30 27 24 22 21 22 23 25 25 27 29 30 32 31 36 34 32 36
48 49 47 44 46 42 38 38 35 36 37 38 36 34 39 27 35 36 37 33 28 33 40 39 33 28 25 22 19 19 20 21 21 23 25 26 30 27 28 32 32 37 39
37 41 44 46 45 42 39 36 35 35 35 36 36 33 32 28 34 40 32 31 31 36 39 35 30 26 21 18 17 17 18 18 19 21 22 23 25 22 23 22 29 35 35
40 40 44 44 42 39 39 34 34 33 33 32 35 32 21 30 36 38 32 28 37 34 33 30 26 22 19 17 14 14 15 15 17 19 19 20 20 19 16 21 27 30 27
39 38 37 38 36 36 35 33 32 32 30 30 31 24 18 30 36 31 28 35 34 30 30 27 25 20 17 14 13 13 13 14 15 15 16 17 16 17 18 24 28 23 27
36 36 35 32 31 31 30 31 29 29 27 28 22 18 21 30 33 29 33 30 28 31 32 29 24 19 15 12 11 11 12 11 12 12 13 15 13 14 21 24 18 20 19
31 31 29 27 27 26 28 27 27 25 25 21 19 15 28 35 32 33 33 34 33 32 29 25 20 15 12 9 8 9 7 8 9 9 10 13 10 14 14 15 20 20 18
24 24 23 21 20 24 24 23 21 23 21 19 12 18 32 31 28 29 30 27 29 27 25 20 16 12 9 7 6 5 4 6 8 8 9 8 7 10 8 13 17 27 19
21 20 20 19 20 20 20 22 19 18 12 11 11 30 32 31 31 30 27 26 28 26 21 17 14 11 7 4 4 3 3 4 7 8 7 4 3 5 9 14 25 28 25
17 15 15 14 14 16 21 18 17 12 10 6 21 26 31 33 31 29 29 30 30 25 20 16 14 9 4 3 3 2 2 3 6 8 6 3 5 4 11 10 23 24 28
15 14 16 17 19 22 20 17 11 15 12 15 24 29 33 29 29 33 31 28 23 19 17 11 9 4 5 3 2 2 2 2 5 8 4 9 8 8 13 10 19 20 23
15 13 9 9 8 4 7 15 15 15 17 19 26 32 34 35 38 34 30 26 22 20 14 8 4 4 5 3 3 3 3 0 4 7 3 11 11 12 9 10 18 20 20
17 14 14 13 13 14 10 11 15 17 24 26 25 29 29 35 36 32 28 23 19 16 8 6 4 4 4 4 5 6 4 1 2 5 3 11 12 16 12 11 21 24 21
29 18 17 13 13 12 14 15 17 23 26 25 28 35 39 38 36 31 25 21 18 13 10 6 5 6 6 6 7 7 5 1 1 3 5 9 11 16 17 15 17 21 24
21 21 21 17 16 15 15 13 15 20 24 28 34 40 41 34 28 26 23 20 16 10 7 6 7 7 7 7 7 7 5 3 2 2 3 4 14 14 20 19 20 18 15
19 19 15 14 13 12 11 13 17 20 20 28 34 39 36 30 30 26 21 18 11 10 9 9 9 8 8 8 8 6 4 4 3 2 1 4 8 18 20 24 24 19 15
14 17 19 17 16 17 18 16 15 16 20 26 28 29 30 28 23 21 16 12 12 11 9 9 10 10 9 8 6 4 3 3 3 2 2 4 7 12 21 24 27 24 21
12 10 10 12 14 17 16 16 17 19 19 19 19 19 18 19 15 15 16 16 13 10 9 8 8 9 8 6 4 3 4 4 4 4 3 2 5 11 16 24 28 31 28
Wind_Direction
298 294 298 295 290 289 288 287 279 283 280 276 281 274 267 253 248 241 241 250 255 251 241 236 231 236 245 252 258 261 259 261 262 264 270 275 277 278 280 284 286 286 285
302 304 301 296 294 290 285 287 285 278 280 278 277 272 267 258 248 234 234 246 253 249 237 233 228 231 240 249 257 259 257 260 262 265 271 275 279 281 285 287 287 287 287
300 300 297 297 299 295 285 280 282 281 282 274 276 274 272 262 247 241 234 234 244 249 234 229 226 228 235 245 255 255 256 260 263 269 272 277 280 285 287 289 289 289 286
297 294 293 294 295 294 286 280 280 284 288 279 274 278 274 265 257 246 239 234 241 244 228 223 221 224 231 242 250 251 256 260 266 272 278 281 284 288 291 292 290 290 292
292 294 299 294 290 291 290 285 282 285 285 282 275 281 280 274 253 252 242 230 230 230 225 218 217 219 227 238 244 248 253 259 267 275 280 284 291 295 296 295 295 296 291
286 288 297 301 297 292 291 290 287 282 281 282 282 285 280 284 253 241 242 237 220 223 222 215 213 216 224 235 239 245 250 260 270 275 282 291 297 297 295 296 298 297 300
283 283 287 299 296 297 294 293 291 289 286 285 286 288 282 287 254 239 227 213 205 213 217 211 209 212 222 229 235 242 251 262 270 279 288 293 295 297 298 299 302 306 307
285 285 284 289 295 295 297 291 290 289 286 290 285 287 287 290 232 227 207 211 194 208 208 205 207 211 219 224 232 242 253 264 275 285 294 298 300 301 302 306 313 308 307
286 283 282 285 290 289 293 293 293 290 288 290 288 286 287 287 222 214 207 193 193 202 199 200 203 207 210 218 229 242 256 270 280 290 295 299 301 304 311 315 320 310 316
283 278 280 281 284 287 289 292 294 290 290 289 288 293 289 258 217 210 210 195 194 194 192 197 199 199 205 214 227 244 260 272 286 294 297 297 302 312 316 321 328 315 315
285 279 276 279 278 281 282 288 292 290 290 291 290 296 287 231 217 200 198 194 194 183 189 193 191 194 200 211 228 246 262 279 291 292 288 291 307 311 322 328 317 308 308
287 278 275 274 271 274 277 286 290 287 289 291 293 293 282 218 204 187 198 199 178 177 184 184 186 189 199 215 230 252 270 284 289 282 286 299 312 318 319 317 318 317 304
281 280 282 277 269 266 273 281 287 283 286 291 295 282 272 204 188 182 193 169 160 175 180 182 185 187 198 216 237 259 276 286 279 281 291 314 319 322 340 330 320 317 340
283 279 280 278 266 262 270 277 281 282 287 296 288 281 211 191 179 176 159 152 163 174 180 181 182 186 197 217 242 265 283 279 274 286 306 326 326 330 335 338 343 348 1
284 281 281 272 263 261 266 277 274 281 287 287 272 271 193 181 178 169 160 155 168 175 175 179 178 182 198 219 248 276 280 271 279 296 329 341 336 352 8 2 21 17 15
285 285 283 275 266 264 272 266 272 286 285 259 250 205 184 175 175 157 149 158 165 168 175 176 175 182 197 225 270 303 288 278 287 320 340 349 5 14 27 44 38 45 42
290 289 286 278 272 271 265 272 282 272 247 220 224 183 175 166 164 147 149 163 162 169 173 174 172 185 208 245 316 307 282 280 306 335 352 10 55 27 50 61 63 60 53
310 303 296 289 279 272 275 277 270 219 175 211 187 176 167 160 151 150 151 161 166 169 174 172 181 191 229 284 303 263 249 297 322 343 6 116 126 102 62 92 86 81 72
332 318 308 298 283 271 264 256 204 165 169 184 180 163 163 158 152 148 150 158 162 167 180 164 166 194 253 274 203 196 206 312 337 2 26 138 150 132 120 81 109 105 105
323 329 339 326 314 283 167 153 154 166 170 166 164 161 160 156 154 147 151 157 164 177 181 154 175 252 255 202 179 167 187 338 10 22 89 147 163 145 144 131 117 134 142
37 42 42 63 74 93 109 144 153 155 160 158 161 161 155 157 145 145 152 157 168 184 171 187 202 227 212 191 172 172 189 153 47 36 105 161 172 163 147 148 143 123 155
42 47 51 73 74 78 97 113 130 148 148 153 153 154 153 150 146 149 156 167 179 185 196 195 195 193 200 193 178 174 182 193 95 76 67 167 176 180 158 161 162 137 136
40 54 59 70 68 79 104 121 132 144 149 152 158 153 147 144 147 155 168 176 183 188 212 177 172 193 195 185 180 181 182 185 203 137 96 141 183 189 185 166 175 174 155
34 40 61 67 84 93 113 127 140 142 148 154 158 153 147 153 164 167 177 179 190 195 174 164 175 184 181 182 185 184 183 202 206 221 191 173 184 188 198 192 186 191 191
52 54 66 82 97 107 120 134 139 144 150 157 161 161 156 161 168 171 172 181 176 170 163 171 169 166 176 185 190 193 209 229 262 286 244 226 210 195 194 204 205 195 190
41 46 61 69 90 105 113 119 131 138 145 154 162 163 164 169 179 181 168 166 165 157 168 170 161 164 172 179 186 210 256 288 301 309 314 279 231 221 209 201 205 208 204